This is the latest recevied weather packets stored in our database for station/object N2ZVN. If no packets are shown the sender has not sent any weather packets the latest 10 day(s).
| Time | Temp. | Humidity | Pressure | Rain* | Wind** | Luminosity | Snow |
|---|---|---|---|---|---|---|---|
| 1777941265 | 17.22° C | 48% | 1003.1 hPa | 0 mm | - | 0 W/m² | - |
| 1777940961 | 17.78° C | 47% | 1003 hPa | 0 mm | - | 0 W/m² | - |
| 1777940657 | 17.78° C | 45% | 1003.1 hPa | 0 mm | - | 1 W/m² | - |
| 1777940356 | 18.33° C | 42% | 1003 hPa | 0 mm | - | 2 W/m² | - |
| 1777940053 | 18.89° C | 42% | 1003.1 hPa | 0 mm | - | 2 W/m² | - |
| 1777939750 | 19.44° C | 42% | 1003.2 hPa | 0 mm | - | 4 W/m² | - |
| 1777939448 | 19.44° C | 40% | 1003.1 hPa | 0 mm | - | 5 W/m² | - |
| 1777939144 | 20° C | 40% | 1003.1 hPa | 0 mm | - | 7 W/m² | - |
| 1777938842 | 20.56° C | 38% | 1003.1 hPa | 0 mm | - | 9 W/m² | - |
| 1777938537 | 20.56° C | 35% | 1003.2 hPa | 0 mm | - | 11 W/m² | - |
| 1777938235 | 20.56° C | 37% | 1003.2 hPa | 0 mm | - | 14 W/m² | - |
| 1777937932 | 21.11° C | 37% | 1003.2 hPa | 0 mm | - | 17 W/m² | - |
| 1777937628 | 21.11° C | 34% | 1003.2 hPa | 0 mm | - | 23 W/m² | - |
| 1777937324 | 21.67° C | 35% | 1003.2 hPa | 0 mm | - | 31 W/m² | - |
| 1777937022 | 21.11° C | 33% | 1003.2 hPa | 0 mm | - | 33 W/m² | - |
| 1777936718 | 21.67° C | 34% | 1003.2 hPa | 0 mm | - | 34 W/m² | - |
| 1777936415 | 21.67° C | 33% | 1003.4 hPa | 0 mm | - | 37 W/m² | - |
| 1777936111 | 21.67° C | 33% | 1003.3 hPa | 0 mm | - | 40 W/m² | - |
| 1777935809 | 21.67° C | 32% | 1003 hPa | 0 mm | - | 34 W/m² | - |
| 1777935508 | 21.67° C | 32% | 1003.2 hPa | 0 mm | - | 32 W/m² | - |
| 1777935203 | 22.22° C | 31% | 1003.2 hPa | 0 mm | - | 38 W/m² | - |
| 1777934901 | 22.22° C | 31% | 1003.2 hPa | 0 mm | - | 45 W/m² | - |
| 1777934598 | 22.22° C | 32% | 1003.3 hPa | 0 mm | - | 60 W/m² | - |
| 1777934295 | 22.22° C | 31% | 1003 hPa | 0 mm | - | 79 W/m² | - |
| 1777933990 | 22.22° C | 30% | 1002.9 hPa | 0 mm | - | 81 W/m² | - |
* Rain latest hour (hover to see other rain measurements)
** Current wind speed in m/s (hover to see current wind gust speed)